This demonstration page uses our WeatherBlox Daily Observations layout. Learn more.

Left ArrowRight Arrow

Hourly Observations for July 22, 2016

Temp ( °F °C ) Dew Point ( °F °C ) Humidity (%) Winds ( mph kmh ) Pressure ( in mb ) Visibility ( mi km ) Precip ( " mm )
12:15 am 00:15 Clear 78 25.4 74 23.2 88 88 N N/A 29.85 1011 10 16 N/A
12:35 am 00:35 Clear 77 25.2 73 23 88 88 N N/A 29.85 1011 10 16 N/A
12:55 am 00:55 Clear 75 23.9 72 22.2 90 90 N N/A 29.85 1011 10 16 N/A
1:15 am 01:15 Clear 76 24.2 73 22.8 92 92 N N/A 29.85 1011 10 16 N/A
1:35 am 01:35 Clear 76 24.7 73 22.9 90 90 N N/A 29.85 1011 10 16 N/A
1:55 am 01:55 Clear 75 23.9 72 22.4 91 91 N N/A 29.85 1011 10 16 N/A
2:15 am 02:15 Clear 75 23.7 72 22.2 91 91 N N/A 29.85 1011 10 16 N/A
2:35 am 02:35 Clear 74 23.5 72 22.1 92 92 N N/A 29.85 1011 10 16 N/A
2:55 am 02:55 Clear 74 23.2 71 21.6 91 91 N N/A 29.85 1011 10 16 N/A
3:15 am 03:15 Clear 74 23.3 71 21.7 91 91 N N/A 29.85 1011 10 16 N/A
3:35 am 03:35 Clear 73 22.7 70 21.3 92 92 N N/A 29.88 1012 10 16 N/A
3:55 am 03:55 Clear 73 22.5 70 21.2 92 92 N N/A 29.88 1012 10 16 N/A
4:15 am 04:15 Clear 73 22.5 70 21.2 92 92 N N/A 29.88 1012 10 16 N/A
4:35 am 04:35 Clear 73 22.6 70 21.3 92 92 N N/A 29.88 1012 10 16 N/A
4:55 am 04:55 Clear 71 21.9 69 20.8 94 94 N N/A 29.88 1012 7 11 N/A
5:15 am 05:15 Clear 72 22 70 21 94 94 N N/A 29.88 1012 10 16 N/A
5:35 am 05:35 Clear 73 22.5 71 21.5 94 94 N N/A 29.88 1012 10 16 N/A
5:55 am 05:55 Clear 72 22.4 70 21.1 92 92 N N/A 29.88 1012 7 11 N/A
6:15 am 06:15 Clear 72 22.3 69 20.8 91 91 N N/A 29.88 1012 10 16 N/A
6:35 am 06:35 Sunny with Mist and Fog 71 21.7 69 20.7 94 94 N N/A 29.88 1012 5 8 N/A
6:55 am 06:55 Sunny 73 22.5 70 21.2 92 92 N N/A 29.88 1012 7 11 N/A
7:15 am 07:15 Sunny 73 22.8 70 21.3 91 91 N N/A 29.85 1011 7 11 N/A
7:35 am 07:35 Sunny 75 23.7 72 22.2 91 91 N N/A 29.85 1011 7 11 N/A
7:55 am 07:55 Sunny 76 24.2 72 22.3 89 89 N 3 6 29.85 1011 7 11 N/A
8:15 am 08:15 Sunny 77 25 73 22.6 87 87 N 3 6 29.85 1011 10 16 N/A
8:35 am 08:35 Sunny 79 26.1 73 22.5 81 81 ENE 3 6 29.88 1012 10 16 N/A
8:55 am 08:55 Sunny 81 27.1 73 22.9 78 78 NNE 5 7 29.85 1011 10 16 N/A
9:15 am 09:15 Sunny 82 27.5 73 22.5 74 74 N N/A 29.85 1011 10 16 N/A
9:35 am 09:35 Sunny 83 28.1 73 23 74 74 N N/A 29.85 1011 10 16 N/A
9:55 am 09:55 Sunny 85 29.2 74 23.4 71 71 E 3 6 29.85 1011 10 16 N/A
10:15 am 10:15 Sunny 85 29.5 75 23.7 71 71 N N/A 29.85 1011 10 16 N/A
10:35 am 10:35 Sunny 86 29.8 75 23.7 70 70 ENE 3 6 29.85 1011 10 16 N/A
10:55 am 10:55 Sunny 87 30.8 75 24 67 67 ENE 5 7 29.83 1010 10 16 N/A
11:15 am 11:15 Sunny 89 31.5 74 23.5 63 63 E 6 9 29.83 1010 10 16 N/A
11:35 am 11:35 Sunny 89 31.7 76 24.5 66 66 ENE 5 7 29.83 1010 10 16 N/A
11:55 am 11:55 Sunny 90 32.1 76 24.7 65 65 ESE 6 9 29.83 1010 10 16 N/A
12:15 pm 12:15 Sunny 90 32.2 74 23.5 60 60 SSE 9 15 29.83 1010 10 16 N/A
12:35 pm 12:35 Sunny 91 32.7 74 23.2 57 57 SE 9 15 29.83 1010 10 16 N/A
12:55 pm 12:55 Sunny 90 32.2 72 22.3 56 56 E 7 11 29.83 1010 10 16 N/A
1:15 pm 13:15 Sunny with Nearby Thunderstorms 89 31.7 73 22.5 58 58 ESE 8 13 29.85 1011 10 16 N/A
1:35 pm 13:35 Sunny with Nearby Thunderstorms 88 31 73 22.9 62 62 E 5 7 29.85 1011 10 16 N/A
1:55 pm 13:55 Sunny 87 30.5 72 22.3 62 62 ESE 7 11 29.85 1011 10 16 N/A
2:15 pm 14:15 Sunny with Nearby Thunderstorms 86 29.8 71 21.4 61 61 SE 6 9 29.85 1011 10 16 N/A
2:35 pm 14:35 Sunny with Nearby Thunderstorms 85 29.3 73 22.7 68 68 E 5 7 29.85 1011 10 16 N/A
2:55 pm 14:55 Sunny with Nearby Thunderstorms 89 31.4 71 21.4 55 55 N N/A 29.83 1010 10 16 N/A
3:15 pm 15:15 Sunny with Nearby Thunderstorms 91 32.7 69 20.4 48 48 S 5 7 29.83 1010 10 16 N/A
3:35 pm 15:35 Sunny 92 33.2 64 17.8 40 40 SSE 13 20 29.83 1010 10 16 N/A
3:55 pm 15:55 Sunny 91 32.5 67 19.7 47 47 SE 9 15 29.80 1009 10 16 N/A
4:15 pm 16:15 Sunny 90 32.2 65 18.2 43 43 SE 9 15 29.80 1009 10 16 N/A
4:35 pm 16:35 Sunny 89 31.7 67 19.3 48 48 SSE 10 17 29.80 1009 10 16 N/A
4:55 pm 16:55 Sunny 89 31.6 69 20.6 52 52 SE 10 17 29.80 1009 10 16 N/A
5:15 pm 17:15 Sunny 90 32.1 68 20 49 49 SSE 10 17 29.80 1009 10 16 N/A
5:35 pm 17:35 Sunny 89 31.8 68 20.2 50 50 SSE 8 13 29.80 1009 10 16 N/A
5:55 pm 17:55 Sunny 90 32 67 19.4 47 47 SSE 7 11 29.80 1009 10 16 N/A
6:15 pm 18:15 Sunny 89 31.9 69 20.3 50 50 SSE 7 11 29.77 1008 10 16 N/A
6:35 pm 18:35 Sunny 89 31.5 69 20.5 52 52 SSE 5 7 29.77 1008 10 16 N/A
6:55 pm 18:55 Sunny 88 31.2 69 20.5 53 53 SE 5 7 29.77 1008 10 16 N/A
7:15 pm 19:15 Sunny 88 30.9 70 21.1 56 56 N N/A 29.77 1008 10 16 N/A
7:35 pm 19:35 Sunny 85 29.5 73 22.6 66 66 N N/A 29.80 1009 10 16 N/A
7:55 pm 19:55 Sunny 84 28.9 73 23 71 71 N N/A 29.80 1009 10 16 N/A
8:15 pm 20:15 Sunny 83 28.2 73 22.8 73 73 E 3 6 29.80 1009 10 16 N/A
8:35 pm 20:35 Sunny 82 27.5 73 23 77 77 ESE 7 11 29.80 1009 10 16 N/A
8:55 pm 20:55 Sunny 80 26.8 73 22.5 77 77 N N/A 29.77 1008 10 16 N/A
9:15 pm 21:15 Clear 79 26 73 23 84 84 N N/A 29.77 1008 10 16 N/A
9:35 pm 21:35 Clear 79 26.2 73 22.6 81 81 ESE 5 7 29.77 1008 10 16 N/A
9:55 pm 21:55 Clear 80 26.5 72 22 76 76 ESE 5 7 29.77 1008 10 16 N/A
10:15 pm 22:15 Clear 78 25.5 72 22.2 82 82 E 6 9 29.83 1010 10 16 N/A
10:35 pm 22:35 Clear 78 25.8 70 21.3 76 76 E 8 13 29.83 1010 10 16 N/A
10:55 pm 22:55 Clear 78 25.7 71 21.4 77 77 E 8 13 29.83 1010 10 16 N/A
11:15 pm 23:15 Clear 78 25.4 70 21 77 77 ESE 7 11 29.83 1010 10 16 N/A
11:35 pm 23:35 Clear 77 24.8 70 21 79 79 ESE 8 13 29.80 1009 10 16 N/A
11:55 pm 23:55 Clear 76 24.6 69 20.5 78 78 E 6 9 29.80 1009 10 16 N/A

Powered by AerisWeather